Вернуться в каталог

PACE

АктивенНаукаPO
NORAD 40022·PAYLOAD·🇹🇼 Taiwan

Запущен Jun 19, 2014 с Dombarovsky

Loading…

Ближайшие Пролёты (ближайшие 24 часа)

TLE

СвежийSource: Space-Track

Эпоха: Sep 13, 2026, 23:43 UTC

1 40022U 14033N   26256.98853399  .00004284  00000-0  25696-3 0  9993
2 40022  98.1263 267.3832 0004619 279.0995  80.9711 15.11538167666441

Отслеживайте PACE в реальном времени с AllMySat

Download on the App Store